Time,TemperatureF,DewpointF,PressureIn,WindDirection,WindDirectionDegrees,WindSpeedMPH,WindSpeedGustMPH,Humidity,HourlyPrecipIn,Conditions,Clouds,dailyrainin,SoftwareType,DateUTC
2013-02-07 00:03:00,47.1,14.9,30.03,North,1,2.0,3.1,27,0.00,,,-99.99,FreeWX-Wi 1.02,2013-02-07 08:03:00,
2013-02-07 00:08:00,46.9,14.7,30.03,North,3,2.0,3.6,27,0.00,,,-99.99,FreeWX-Wi 1.02,2013-02-07 08:08:00,
2013-02-07 00:13:00,46.9,14.7,30.03,North,3,2.0,4.0,27,0.00,,,-99.99,FreeWX-Wi 1.02,2013-02-07 08:13:00,
2013-02-07 00:18:00,46.9,14.7,30.06,North,3,2.0,4.0,27,0.00,,,-99.99,FreeWX-Wi 1.02,2013-02-07 08:18:00,
2013-02-07 00:23:00,46.9,14.7,30.06,North,3,2.0,3.6,27,0.00,,,-99.99,FreeWX-Wi 1.02,2013-02-07 08:23:00,
2013-02-07 00:28:00,47.1,14.9,30.06,North,3,2.0,3.1,27,0.00,,,-99.99,FreeWX-Wi 1.02,2013-02-07 08:28:00,
2013-02-07 00:33:00,46.9,14.7,30.03,North,3,2.0,3.1,27,0.00,,,-99.99,FreeWX-Wi 1.02,2013-02-07 08:33:00,
2013-02-07 00:38:00,46.8,14.5,30.03,North,3,2.0,2.7,27,0.00,,,-99.99,FreeWX-Wi 1.02,2013-02-07 08:38:00,
2013-02-07 00:43:00,46.6,14.4,30.03,North,3,2.0,2.7,27,0.00,,,-99.99,FreeWX-Wi 1.02,2013-02-07 08:43:00,
2013-02-07 00:48:00,46.4,14.2,30.03,North,3,2.0,3.6,27,0.00,,,-99.99,FreeWX-Wi 1.02,2013-02-07 08:48:00,
2013-02-07 00:53:00,46.2,14.2,30.03,North,3,1.0,4.0,27,0.00,,,-99.99,FreeWX-Wi 1.02,2013-02-07 08:53:00,
2013-02-07 00:58:00,46.0,14.0,30.03,North,3,1.0,3.6,27,0.00,,,-99.99,FreeWX-Wi 1.02,2013-02-07 08:58:00,
2013-02-07 01:03:00,45.9,13.8,30.03,North,3,1.0,3.1,27,0.00,,,-99.99,FreeWX-Wi 1.02,2013-02-07 09:03:00,
2013-02-07 01:08:00,46.0,12.2,30.03,North,3,2.0,4.0,25,0.00,,,-99.99,FreeWX-Wi 1.02,2013-02-07 09:08:00,
2013-02-07 01:13:00,45.9,12.0,30.03,North,3,2.0,3.6,25,0.00,,,-99.99,FreeWX-Wi 1.02,2013-02-07 09:13:00,
2013-02-07 01:18:00,45.9,12.0,30.03,North,3,2.0,4.0,25,0.00,,,-99.99,FreeWX-Wi 1.02,2013-02-07 09:18:00,
2013-02-07 01:23:00,45.9,12.0,30.03,North,3,2.0,3.6,25,0.00,,,-99.99,FreeWX-Wi 1.02,2013-02-07 09:23:00,
2013-02-07 01:28:00,45.9,12.0,30.03,North,3,2.0,3.6,25,0.00,,,-99.99,FreeWX-Wi 1.02,2013-02-07 09:28:00,
2013-02-07 01:33:00,45.7,11.8,30.03,North,3,2.0,2.7,25,0.00,,,-99.99,FreeWX-Wi 1.02,2013-02-07 09:33:00,
2013-02-07 01:38:00,45.3,11.7,30.03,North,3,2.0,3.1,25,0.00,,,-99.99,FreeWX-Wi 1.02,2013-02-07 09:38:00,
2013-02-07 01:43:00,45.1,11.5,30.03,North,3,2.0,3.6,25,0.00,,,-99.99,FreeWX-Wi 1.02,2013-02-07 09:43:00,
2013-02-07 01:48:00,45.1,11.5,30.03,North,3,2.0,2.7,25,0.00,,,-99.99,FreeWX-Wi 1.02,2013-02-07 09:48:00,
2013-02-07 01:53:00,45.1,11.5,30.03,North,3,1.0,3.1,25,0.00,,,-99.99,FreeWX-Wi 1.02,2013-02-07 09:53:00,
2013-02-07 01:58:00,44.8,11.1,30.03,North,3,1.0,2.7,25,0.00,,,-99.99,FreeWX-Wi 1.02,2013-02-07 09:58:00,
2013-02-07 02:03:00,44.4,13.5,30.03,North,3,1.0,2.7,28,0.00,,,-99.99,FreeWX-Wi 1.02,2013-02-07 10:03:00,
2013-02-07 02:08:00,44.4,13.5,30.03,North,3,1.0,3.6,28,0.00,,,-99.99,FreeWX-Wi 1.02,2013-02-07 10:08:00,
2013-02-07 02:13:00,44.2,13.3,30.03,North,3,1.0,3.6,28,0.00,,,-99.99,FreeWX-Wi 1.02,2013-02-07 10:13:00,
2013-02-07 02:18:00,44.2,13.3,30.03,North,3,2.0,3.6,28,0.00,,,-99.99,FreeWX-Wi 1.02,2013-02-07 10:18:00,
2013-02-07 02:23:00,44.1,13.1,30.03,North,4,2.0,3.6,28,0.00,,,-99.99,FreeWX-Wi 1.02,2013-02-07 10:23:00,
2013-02-07 02:28:00,43.7,12.7,30.03,North,4,2.0,2.7,28,0.00,,,-99.99,FreeWX-Wi 1.02,2013-02-07 10:28:00,
2013-02-07 02:33:00,43.5,12.6,30.03,North,5,2.0,4.0,28,0.00,,,-99.99,FreeWX-Wi 1.02,2013-02-07 10:33:00,
2013-02-07 02:38:00,43.7,12.7,30.03,North,7,2.0,3.1,28,0.00,,,-99.99,FreeWX-Wi 1.02,2013-02-07 10:38:00,
2013-02-07 02:43:00,43.7,12.7,30.03,North,8,1.0,2.2,28,0.00,,,-99.99,FreeWX-Wi 1.02,2013-02-07 10:43:00,
2013-02-07 02:48:00,44.1,13.1,30.03,North,10,1.0,0.0,28,0.00,,,-99.99,FreeWX-Wi 1.02,2013-02-07 10:48:00,
2013-02-07 02:53:00,43.9,12.9,30.03,North,11,1.0,3.1,28,0.00,,,-99.99,FreeWX-Wi 1.02,2013-02-07 10:53:00,
2013-02-07 02:58:00,43.7,12.7,30.03,North,11,1.0,2.7,28,0.00,,,-99.99,FreeWX-Wi 1.02,2013-02-07 10:58:00,
2013-02-07 03:03:00,43.5,12.6,30.03,NNE,12,1.0,3.6,28,0.00,,,-99.99,FreeWX-Wi 1.02,2013-02-07 11:03:00,
2013-02-07 03:08:00,43.7,12.7,30.03,NNE,12,1.0,3.6,28,0.00,,,-99.99,FreeWX-Wi 1.02,2013-02-07 11:08:00,
2013-02-07 03:13:00,43.5,12.6,30.03,NNE,12,1.0,3.6,28,0.00,,,-99.99,FreeWX-Wi 1.02,2013-02-07 11:13:00,
2013-02-07 03:18:00,43.5,12.6,30.03,NNE,12,2.0,4.0,28,0.00,,,-99.99,FreeWX-Wi 1.02,2013-02-07 11:18:00,
2013-02-07 03:23:00,43.5,12.6,30.03,NNE,15,2.0,4.0,28,0.00,,,-99.99,FreeWX-Wi 1.02,2013-02-07 11:23:00,
2013-02-07 03:28:00,43.5,12.6,30.03,NNE,19,2.0,4.0,28,0.00,,,-99.99,FreeWX-Wi 1.02,2013-02-07 11:28:00,
2013-02-07 03:33:00,43.5,10.0,30.03,NNE,22,2.0,3.6,25,0.00,,,-99.99,FreeWX-Wi 1.02,2013-02-07 11:33:00,
2013-02-07 03:38:00,43.7,10.2,30.03,NNE,25,2.0,3.1,25,0.00,,,-99.99,FreeWX-Wi 1.02,2013-02-07 11:38:00,
2013-02-07 03:43:00,43.7,10.2,30.03,NNE,29,2.0,4.0,25,0.00,,,-99.99,FreeWX-Wi 1.02,2013-02-07 11:43:00,
2013-02-07 03:48:00,43.7,10.2,30.00,NNE,31,2.0,3.1,25,0.00,,,-99.99,FreeWX-Wi 1.02,2013-02-07 11:48:00,
2013-02-07 03:53:00,43.5,10.0,30.00,NNE,32,2.0,3.1,25,0.00,,,-99.99,FreeWX-Wi 1.02,2013-02-07 11:53:00,
2013-02-07 03:58:00,43.3,9.9,30.00,NNE,32,2.0,4.0,25,0.00,,,-99.99,FreeWX-Wi 1.02,2013-02-07 11:58:00,
2013-02-07 04:03:00,43.3,9.9,30.00,NNE,32,2.0,3.6,25,0.00,,,-99.99,FreeWX-Wi 1.02,2013-02-07 12:03:00,
2013-02-07 04:08:00,43.2,9.7,30.00,NNE,32,2.0,3.1,25,0.00,,,-99.99,FreeWX-Wi 1.02,2013-02-07 12:08:00,
2013-02-07 04:13:00,43.3,9.9,30.00,NNE,32,2.0,4.0,25,0.00,,,-99.99,FreeWX-Wi 1.02,2013-02-07 12:13:00,
2013-02-07 04:18:00,43.7,8.4,30.00,NNE,32,2.0,3.6,23,0.00,,,-99.99,FreeWX-Wi 1.02,2013-02-07 12:18:00,
2013-02-07 04:23:00,43.7,8.4,30.00,NNE,32,2.0,4.0,23,0.00,,,-99.99,FreeWX-Wi 1.02,2013-02-07 12:23:00,
2013-02-07 04:28:00,43.9,8.6,30.00,NNE,32,2.0,3.6,23,0.00,,,-99.99,FreeWX-Wi 1.02,2013-02-07 12:28:00,
2013-02-07 04:33:00,43.7,8.4,30.00,NNE,32,2.0,3.6,23,0.00,,,-99.99,FreeWX-Wi 1.02,2013-02-07 12:33:00,
2013-02-07 04:38:00,43.5,8.2,30.00,NNE,33,2.0,3.1,23,0.00,,,-99.99,FreeWX-Wi 1.02,2013-02-07 12:38:00,
2013-02-07 04:43:00,43.5,8.2,30.00,NNE,33,2.0,3.6,23,0.00,,,-99.99,FreeWX-Wi 1.02,2013-02-07 12:43:00,
2013-02-07 04:48:00,43.5,8.2,30.00,NNE,33,2.0,3.1,23,0.00,,,-99.99,FreeWX-Wi 1.02,2013-02-07 12:48:00,
2013-02-07 04:53:00,43.3,8.1,30.00,NNE,33,2.0,2.7,23,0.00,,,-99.99,FreeWX-Wi 1.02,2013-02-07 12:53:00,
2013-02-07 04:58:00,43.3,8.1,30.00,NNE,33,1.0,0.0,23,0.00,,,-99.99,FreeWX-Wi 1.02,2013-02-07 12:58:00,
2013-02-07 05:03:00,43.3,8.1,30.00,NNE,33,1.0,2.7,23,0.00,,,-99.99,FreeWX-Wi 1.02,2013-02-07 13:03:00,
2013-02-07 05:08:00,43.3,8.1,30.00,NNE,33,1.0,2.7,23,0.00,,,-99.99,FreeWX-Wi 1.02,2013-02-07 13:08:00,
2013-02-07 05:13:00,43.3,8.1,30.00,NNE,33,1.0,2.7,23,0.00,,,-99.99,FreeWX-Wi 1.02,2013-02-07 13:13:00,
2013-02-07 05:18:00,42.8,7.5,30.00,North,-999,0.0,2.7,23,0.00,,,-99.99,FreeWX-Wi 1.02,2013-02-07 13:18:00,
2013-02-07 05:23:00,42.3,7.2,30.00,NNE,33,1.0,2.7,23,0.00,,,-99.99,FreeWX-Wi 1.02,2013-02-07 13:23:00,
2013-02-07 05:28:00,42.1,7.0,30.00,North,-999,0.0,0.0,23,0.00,,,-99.99,FreeWX-Wi 1.02,2013-02-07 13:28:00,
2013-02-07 05:33:00,42.1,7.0,30.00,North,-999,0.0,4.0,23,0.00,,,-99.99,FreeWX-Wi 1.02,2013-02-07 13:33:00,
2013-02-07 05:38:00,42.3,7.2,30.00,NNE,33,1.0,4.0,23,0.00,,,-99.99,FreeWX-Wi 1.02,2013-02-07 13:38:00,
2013-02-07 05:43:00,42.3,7.2,30.00,NNE,33,1.0,3.1,23,0.00,,,-99.99,FreeWX-Wi 1.02,2013-02-07 13:43:00,
2013-02-07 05:48:00,42.3,7.2,30.00,NNE,33,1.0,4.5,23,0.00,,,-99.99,FreeWX-Wi 1.02,2013-02-07 13:48:00,
2013-02-07 05:53:00,42.8,7.5,30.00,NNE,33,1.0,3.1,23,0.00,,,-99.99,FreeWX-Wi 1.02,2013-02-07 13:53:00,
2013-02-07 05:58:00,43.0,7.7,30.00,NNE,33,1.0,2.2,23,0.00,,,-99.99,FreeWX-Wi 1.02,2013-02-07 13:58:00,
2013-02-07 06:03:00,43.0,7.7,30.00,NNE,33,2.0,3.6,23,0.00,,,-99.99,FreeWX-Wi 1.02,2013-02-07 14:03:00,
2013-02-07 06:08:00,42.8,7.5,30.00,NNE,33,2.0,3.6,23,0.00,,,-99.99,FreeWX-Wi 1.02,2013-02-07 14:08:00,
2013-02-07 06:13:00,42.8,7.5,30.00,NNE,33,2.0,3.6,23,0.00,,,-99.99,FreeWX-Wi 1.02,2013-02-07 14:13:00,
2013-02-07 06:18:00,42.6,7.5,30.03,NNE,33,2.0,3.1,23,0.00,,,-99.99,FreeWX-Wi 1.02,2013-02-07 14:18:00,
2013-02-07 06:23:00,42.6,7.5,30.03,NNE,33,2.0,2.2,23,0.00,,,-99.99,FreeWX-Wi 1.02,2013-02-07 14:23:00,
2013-02-07 06:28:00,43.0,7.7,30.03,NNE,33,2.0,4.0,23,0.00,,,-99.99,FreeWX-Wi 1.02,2013-02-07 14:28:00,
2013-02-07 06:33:00,43.0,7.7,30.03,NNE,33,2.0,3.6,23,0.00,,,-99.99,FreeWX-Wi 1.02,2013-02-07 14:33:00,
2013-02-07 06:38:00,42.8,7.5,30.03,NNE,33,2.0,2.7,23,0.00,,,-99.99,FreeWX-Wi 1.02,2013-02-07 14:38:00,
2013-02-07 06:43:00,42.4,7.3,30.03,NNE,33,2.0,3.1,23,0.00,,,-99.99,FreeWX-Wi 1.02,2013-02-07 14:43:00,
2013-02-07 06:48:00,42.4,7.3,30.03,NNE,33,2.0,4.0,23,0.00,,,-99.99,FreeWX-Wi 1.02,2013-02-07 14:48:00,
2013-02-07 06:53:00,42.4,7.3,30.03,NNE,33,2.0,3.1,23,0.00,,,-99.99,FreeWX-Wi 1.02,2013-02-07 14:53:00,
2013-02-07 06:58:00,42.4,7.3,30.03,NNE,33,2.0,2.7,23,0.00,,,-99.99,FreeWX-Wi 1.02,2013-02-07 14:58:00,
2013-02-07 07:03:00,42.8,7.5,30.03,NNE,33,1.0,2.7,23,0.00,,,-99.99,FreeWX-Wi 1.02,2013-02-07 15:03:00,
2013-02-07 07:08:00,43.3,8.1,30.03,NE,34,1.0,4.9,23,0.00,,,-99.99,FreeWX-Wi 1.02,2013-02-07 15:08:00,
2013-02-07 07:13:00,43.7,8.4,30.03,NE,38,1.0,2.7,23,0.00,,,-99.99,FreeWX-Wi 1.02,2013-02-07 15:13:00,
2013-02-07 07:18:00,44.2,8.8,30.03,NE,41,1.0,3.1,23,0.00,,,-99.99,FreeWX-Wi 1.02,2013-02-07 15:18:00,
2013-02-07 07:23:00,44.8,8.2,30.03,NE,44,2.0,3.6,22,0.00,,,-99.99,FreeWX-Wi 1.02,2013-02-07 15:23:00,
2013-02-07 07:28:00,45.5,9.0,30.03,NE,48,1.0,3.1,22,0.00,,,-99.99,FreeWX-Wi 1.02,2013-02-07 15:28:00,
2013-02-07 07:33:00,46.4,9.7,30.03,NE,51,2.0,3.6,22,0.00,,,-99.99,FreeWX-Wi 1.02,2013-02-07 15:33:00,
2013-02-07 07:38:00,47.5,10.6,30.03,NE,54,2.0,3.6,22,0.00,,,-99.99,FreeWX-Wi 1.02,2013-02-07 15:38:00,
2013-02-07 07:43:00,48.4,10.2,30.03,NE,54,1.0,2.2,21,0.00,,,-99.99,FreeWX-Wi 1.02,2013-02-07 15:43:00,
2013-02-07 07:48:00,49.1,10.9,30.06,NE,54,1.0,0.0,21,0.00,,,-99.99,FreeWX-Wi 1.02,2013-02-07 15:48:00,
2013-02-07 07:53:00,49.6,11.3,30.06,NE,54,1.0,0.0,21,0.00,,,-99.99,FreeWX-Wi 1.02,2013-02-07 15:53:00,
2013-02-07 07:58:00,50.2,11.8,30.06,North,-999,0.0,0.0,21,0.00,,,-99.99,FreeWX-Wi 1.02,2013-02-07 15:58:00,
2013-02-07 08:03:00,50.5,12.0,30.06,North,-999,0.0,0.0,21,0.00,,,-99.99,FreeWX-Wi 1.02,2013-02-07 16:03:00,
2013-02-07 08:08:00,51.1,12.6,30.06,North,-999,0.0,0.0,21,0.00,,,-99.99,FreeWX-Wi 1.02,2013-02-07 16:08:00,
2013-02-07 08:13:00,51.8,13.1,30.06,North,-999,0.0,2.7,21,0.00,,,-99.99,FreeWX-Wi 1.02,2013-02-07 16:13:00,
2013-02-07 08:18:00,52.7,13.8,30.06,North,-999,0.0,2.7,21,0.00,,,-99.99,FreeWX-Wi 1.02,2013-02-07 16:18:00,
2013-02-07 08:23:00,53.2,14.4,30.06,North,-999,0.0,3.6,21,0.00,,,-99.99,FreeWX-Wi 1.02,2013-02-07 16:23:00,
2013-02-07 08:28:00,54.3,14.2,30.06,North,-999,0.0,2.7,20,0.00,,,-99.99,FreeWX-Wi 1.02,2013-02-07 16:28:00,
2013-02-07 08:33:00,55.0,14.7,30.06,North,-999,0.0,2.7,20,0.00,,,-99.99,FreeWX-Wi 1.02,2013-02-07 16:33:00,
2013-02-07 08:38:00,55.9,15.4,30.06,North,-999,0.0,0.0,20,0.00,,,-99.99,FreeWX-Wi 1.02,2013-02-07 16:38:00,
2013-02-07 08:43:00,56.8,16.2,30.06,North,-999,0.0,2.7,20,0.00,,,-99.99,FreeWX-Wi 1.02,2013-02-07 16:43:00,
2013-02-07 08:48:00,57.9,16.0,30.06,NE,55,1.0,3.6,19,0.00,,,-99.99,FreeWX-Wi 1.02,2013-02-07 16:48:00,
2013-02-07 08:53:00,58.5,16.3,30.06,North,-999,0.0,3.1,19,0.00,,,-99.99,FreeWX-Wi 1.02,2013-02-07 16:53:00,
2013-02-07 08:58:00,59.4,17.1,30.06,North,-999,0.0,3.1,19,0.00,,,-99.99,FreeWX-Wi 1.02,2013-02-07 16:58:00,
2013-02-07 09:03:00,59.4,17.1,30.06,NE,55,1.0,4.0,19,0.00,,,-99.99,FreeWX-Wi 1.02,2013-02-07 17:03:00,
2013-02-07 09:08:00,59.4,17.1,30.06,NE,55,1.0,4.9,19,0.00,,,-99.99,FreeWX-Wi 1.02,2013-02-07 17:08:00,
2013-02-07 09:13:00,59.7,17.4,30.06,NE,55,1.0,4.0,19,0.00,,,-99.99,FreeWX-Wi 1.02,2013-02-07 17:13:00,
2013-02-07 09:18:00,60.4,18.0,30.06,NE,55,1.0,0.0,19,0.00,,,-99.99,FreeWX-Wi 1.02,2013-02-07 17:18:00,
2013-02-07 09:23:00,61.2,18.5,30.06,NE,55,1.0,2.7,19,0.00,,,-99.99,FreeWX-Wi 1.02,2013-02-07 17:23:00,
2013-02-07 09:28:00,61.7,19.0,30.06,North,-999,0.0,0.0,19,0.00,,,-99.99,FreeWX-Wi 1.02,2013-02-07 17:28:00,
2013-02-07 09:33:00,61.9,19.2,30.06,North,-999,0.0,2.7,19,0.00,,,-99.99,FreeWX-Wi 1.02,2013-02-07 17:33:00,
2013-02-07 09:38:00,62.6,18.5,30.06,North,-999,0.0,3.1,18,0.00,,,-99.99,FreeWX-Wi 1.02,2013-02-07 17:38:00,
2013-02-07 09:43:00,63.1,19.0,30.06,North,-999,0.0,4.0,18,0.00,,,-99.99,FreeWX-Wi 1.02,2013-02-07 17:43:00,
2013-02-07 09:48:00,63.7,19.4,30.06,ENE,59,1.0,4.0,18,0.00,,,-99.99,FreeWX-Wi 1.02,2013-02-07 17:48:00,
2013-02-07 09:53:00,64.6,20.1,30.06,ENE,62,1.0,3.6,18,0.00,,,-99.99,FreeWX-Wi 1.02,2013-02-07 17:53:00,
2013-02-07 09:58:00,64.9,20.5,30.06,ENE,66,1.0,3.6,18,0.00,,,-99.99,FreeWX-Wi 1.02,2013-02-07 17:58:00,
2013-02-07 10:03:00,65.3,20.7,30.06,ENE,69,1.0,3.1,18,0.00,,,-99.99,FreeWX-Wi 1.02,2013-02-07 18:03:00,
2013-02-07 10:08:00,65.7,21.0,30.06,ENE,73,1.0,4.0,18,0.00,,,-99.99,FreeWX-Wi 1.02,2013-02-07 18:08:00,
2013-02-07 10:13:00,66.4,20.3,30.06,East,81,2.0,4.0,17,0.00,,,-99.99,FreeWX-Wi 1.02,2013-02-07 18:13:00,
2013-02-07 10:18:00,66.7,20.5,30.06,East,86,1.0,3.6,17,0.00,,,-99.99,FreeWX-Wi 1.02,2013-02-07 18:18:00,
2013-02-07 10:23:00,66.9,20.7,30.06,East,91,1.0,5.4,17,0.00,,,-99.99,FreeWX-Wi 1.02,2013-02-07 18:23:00,
2013-02-07 10:28:00,67.5,21.2,30.06,East,100,1.0,5.8,17,0.00,,,-99.99,FreeWX-Wi 1.02,2013-02-07 18:28:00,
2013-02-07 10:33:00,68.2,21.7,30.03,ESE,110,2.0,4.0,17,0.00,,,-99.99,FreeWX-Wi 1.02,2013-02-07 18:33:00,
2013-02-07 10:38:00,68.4,21.9,30.03,ESE,122,2.0,6.3,17,0.00,,,-99.99,FreeWX-Wi 1.02,2013-02-07 18:38:00,
2013-02-07 10:43:00,68.5,21.9,30.03,SE,141,2.0,4.0,17,0.00,,,-99.99,FreeWX-Wi 1.02,2013-02-07 18:43:00,
2013-02-07 10:48:00,68.5,21.9,30.03,SSE,165,2.0,4.9,17,0.00,,,-99.99,FreeWX-Wi 1.02,2013-02-07 18:48:00,
2013-02-07 10:53:00,69.1,22.5,30.03,South,190,2.0,5.4,17,0.00,,,-99.99,FreeWX-Wi 1.02,2013-02-07 18:53:00,
2013-02-07 10:58:00,69.4,22.8,30.03,SSW,207,2.0,4.0,17,0.00,,,-99.99,FreeWX-Wi 1.02,2013-02-07 18:58:00,
2013-02-07 11:03:00,69.8,23.0,30.03,SW,219,2.0,4.9,17,0.00,,,-99.99,FreeWX-Wi 1.02,2013-02-07 19:03:00,
2013-02-07 11:08:00,70.2,23.4,30.03,SW,226,2.0,4.0,17,0.00,,,-99.99,FreeWX-Wi 1.02,2013-02-07 19:08:00,
2013-02-07 11:13:00,70.3,23.5,30.03,SW,224,2.0,4.0,17,0.00,,,-99.99,FreeWX-Wi 1.02,2013-02-07 19:13:00,
2013-02-07 11:18:00,70.5,23.5,30.03,SW,223,2.0,5.4,17,0.00,,,-99.99,FreeWX-Wi 1.02,2013-02-07 19:18:00,
2013-02-07 11:23:00,70.7,23.7,30.03,SW,221,1.0,3.1,17,0.00,,,-99.99,FreeWX-Wi 1.02,2013-02-07 19:23:00,
2013-02-07 11:28:00,70.9,23.9,30.03,SW,219,2.0,5.8,17,0.00,,,-99.99,FreeWX-Wi 1.02,2013-02-07 19:28:00,
2013-02-07 11:33:00,71.6,23.0,30.03,SW,217,2.0,5.4,16,0.00,,,-99.99,FreeWX-Wi 1.02,2013-02-07 19:33:00,
2013-02-07 11:38:00,71.2,24.3,30.03,SW,214,2.0,4.0,17,0.00,,,-99.99,FreeWX-Wi 1.02,2013-02-07 19:38:00,
2013-02-07 11:43:00,72.1,23.5,30.03,SSW,208,2.0,5.8,16,0.00,,,-99.99,FreeWX-Wi 1.02,2013-02-07 19:43:00,
2013-02-07 11:48:00,72.7,23.9,30.03,SSW,199,2.0,4.5,16,0.00,,,-99.99,FreeWX-Wi 1.02,2013-02-07 19:48:00,
2013-02-07 11:53:00,72.9,24.1,30.03,South,181,2.0,5.4,16,0.00,,,-99.99,FreeWX-Wi 1.02,2013-02-07 19:53:00,
2013-02-07 11:58:00,72.9,24.1,30.03,South,172,2.0,7.6,16,0.00,,,-99.99,FreeWX-Wi 1.02,2013-02-07 19:58:00,
2013-02-07 12:03:00,73.6,24.6,30.00,South,169,2.0,8.1,16,0.00,,,-99.99,FreeWX-Wi 1.02,2013-02-07 20:03:00,
2013-02-07 12:08:00,73.8,24.8,30.00,SSE,163,3.0,6.7,16,0.00,,,-99.99,FreeWX-Wi 1.02,2013-02-07 20:08:00,
2013-02-07 12:13:00,74.3,25.2,30.00,SSE,163,3.0,7.6,16,0.00,,,-99.99,FreeWX-Wi 1.02,2013-02-07 20:13:00,
2013-02-07 12:18:00,74.7,25.5,30.00,SSE,159,4.0,8.3,16,0.00,,,-99.99,FreeWX-Wi 1.02,2013-02-07 20:18:00,
2013-02-07 12:23:00,74.5,25.3,30.00,SSE,165,4.0,8.7,16,0.00,,,-99.99,FreeWX-Wi 1.02,2013-02-07 20:23:00,
2013-02-07 12:29:00,74.7,25.5,30.00,SSE,162,4.0,8.3,16,0.00,,,-99.99,FreeWX-Wi 1.02,2013-02-07 20:29:00,
2013-02-07 12:34:00,74.7,25.5,30.00,SSE,152,4.0,5.8,16,0.00,,,-99.99,FreeWX-Wi 1.02,2013-02-07 20:34:00,
2013-02-07 12:39:00,74.7,25.5,30.00,SSE,152,5.0,8.7,16,0.00,,,-99.99,FreeWX-Wi 1.02,2013-02-07 20:39:00,
2013-02-07 12:44:00,74.3,25.2,30.00,SSE,152,5.0,10.1,16,0.00,,,-99.99,FreeWX-Wi 1.02,2013-02-07 20:44:00,
2013-02-07 12:49:00,74.5,25.3,30.00,SSE,157,5.0,9.6,16,0.00,,,-99.99,FreeWX-Wi 1.02,2013-02-07 20:49:00,
2013-02-07 12:54:00,74.3,25.2,30.00,SSE,165,5.0,8.7,16,0.00,,,-99.99,FreeWX-Wi 1.02,2013-02-07 20:54:00,
2013-02-07 12:59:00,74.7,25.5,30.00,SSE,167,6.0,10.1,16,0.00,,,-99.99,FreeWX-Wi 1.02,2013-02-07 20:59:00,
2013-02-07 13:04:00,74.7,25.5,30.00,South,170,6.0,8.3,16,0.00,,,-99.99,FreeWX-Wi 1.02,2013-02-07 21:04:00,
2013-02-07 13:09:00,74.8,25.7,30.00,South,169,6.0,8.1,16,0.00,,,-99.99,FreeWX-Wi 1.02,2013-02-07 21:09:00,
2013-02-07 13:14:00,75.4,24.4,30.00,SSE,159,6.0,8.1,15,0.00,,,-99.99,FreeWX-Wi 1.02,2013-02-07 21:14:00,
2013-02-07 13:19:00,75.6,24.6,30.00,SSE,149,6.0,8.7,15,0.00,,,-99.99,FreeWX-Wi 1.02,2013-02-07 21:19:00,
2013-02-07 13:24:00,75.6,24.6,30.00,SE,143,6.0,8.7,15,0.00,,,-99.99,FreeWX-Wi 1.02,2013-02-07 21:24:00,
2013-02-07 13:29:00,75.4,24.4,29.97,SE,146,5.0,8.1,15,0.00,,,-99.99,FreeWX-Wi 1.02,2013-02-07 21:29:00,
2013-02-07 13:34:00,75.2,24.4,29.97,SSE,147,6.0,9.6,15,0.00,,,-99.99,FreeWX-Wi 1.02,2013-02-07 21:34:00,
2013-02-07 13:39:00,75.6,24.6,29.97,SE,141,5.0,8.3,15,0.00,,,-99.99,FreeWX-Wi 1.02,2013-02-07 21:39:00,
2013-02-07 13:44:00,75.6,24.6,29.97,SE,143,5.0,6.7,15,0.00,,,-99.99,FreeWX-Wi 1.02,2013-02-07 21:44:00,
2013-02-07 13:49:00,75.7,24.8,29.97,SSE,150,5.0,8.7,15,0.00,,,-99.99,FreeWX-Wi 1.02,2013-02-07 21:49:00,
2013-02-07 13:54:00,76.1,25.2,29.97,SSE,150,5.0,7.6,15,0.00,,,-99.99,FreeWX-Wi 1.02,2013-02-07 21:54:00,
2013-02-07 13:59:00,76.1,25.2,29.97,SE,146,5.0,8.1,15,0.00,,,-99.99,FreeWX-Wi 1.02,2013-02-07 21:59:00,
2013-02-07 14:04:00,75.9,25.0,29.97,SE,142,5.0,10.1,15,0.00,,,-99.99,FreeWX-Wi 1.02,2013-02-07 22:04:00,
2013-02-07 14:09:00,75.9,25.0,29.97,SE,141,5.0,8.1,15,0.00,,,-99.99,FreeWX-Wi 1.02,2013-02-07 22:09:00,
2013-02-07 14:14:00,75.9,25.0,29.97,SE,145,5.0,6.3,15,0.00,,,-99.99,FreeWX-Wi 1.02,2013-02-07 22:14:00,
2013-02-07 14:19:00,76.1,25.2,29.97,SE,140,5.0,8.3,15,0.00,,,-99.99,FreeWX-Wi 1.02,2013-02-07 22:19:00,
2013-02-07 14:24:00,76.1,25.2,29.97,SE,137,5.0,8.7,15,0.00,,,-99.99,FreeWX-Wi 1.02,2013-02-07 22:24:00,
2013-02-07 14:29:00,75.7,24.8,29.97,SE,134,6.0,10.5,15,0.00,,,-99.99,FreeWX-Wi 1.02,2013-02-07 22:29:00,
2013-02-07 14:34:00,75.9,25.0,29.97,SE,133,5.0,8.7,15,0.00,,,-99.99,FreeWX-Wi 1.02,2013-02-07 22:34:00,
2013-02-07 14:39:00,75.9,25.0,29.97,SE,130,5.0,9.2,15,0.00,,,-99.99,FreeWX-Wi 1.02,2013-02-07 22:39:00,
2013-02-07 14:44:00,75.7,24.8,29.97,SE,127,6.0,12.3,15,0.00,,,-99.99,FreeWX-Wi 1.02,2013-02-07 22:44:00,
2013-02-07 14:49:00,74.8,25.7,29.97,ESE,120,6.0,11.0,16,0.00,,,-99.99,FreeWX-Wi 1.02,2013-02-07 22:49:00,
2013-02-07 14:54:00,74.7,25.5,29.97,ESE,119,6.0,8.3,16,0.00,,,-99.99,FreeWX-Wi 1.02,2013-02-07 22:54:00,
2013-02-07 14:59:00,75.0,25.7,29.97,ESE,118,6.0,11.0,16,0.00,,,-99.99,FreeWX-Wi 1.02,2013-02-07 22:59:00,
2013-02-07 15:04:00,75.0,25.7,29.97,ESE,120,7.0,12.3,16,0.00,,,-99.99,FreeWX-Wi 1.02,2013-02-07 23:04:00,
2013-02-07 15:09:00,75.0,25.7,29.97,ESE,121,7.0,9.2,16,0.00,,,-99.99,FreeWX-Wi 1.02,2013-02-07 23:09:00,
2013-02-07 15:14:00,75.2,24.4,29.97,ESE,120,7.0,10.5,15,0.00,,,-99.99,FreeWX-Wi 1.02,2013-02-07 23:14:00,
2013-02-07 15:19:00,75.4,24.4,29.97,SE,124,6.0,8.7,15,0.00,,,-99.99,FreeWX-Wi 1.02,2013-02-07 23:19:00,
2013-02-07 15:24:00,75.6,24.6,29.97,SE,129,6.0,9.6,15,0.00,,,-99.99,FreeWX-Wi 1.02,2013-02-07 23:24:00,
2013-02-07 15:29:00,75.6,24.6,29.97,SE,128,6.0,6.3,15,0.00,,,-99.99,FreeWX-Wi 1.02,2013-02-07 23:29:00,
2013-02-07 15:34:00,75.2,24.4,29.97,SE,124,5.0,8.1,15,0.00,,,-99.99,FreeWX-Wi 1.02,2013-02-07 23:34:00,
2013-02-07 15:39:00,74.8,25.7,29.97,ESE,120,5.0,11.0,16,0.00,,,-99.99,FreeWX-Wi 1.02,2013-02-07 23:39:00,
2013-02-07 15:44:00,74.3,25.2,29.97,ESE,123,5.0,10.5,16,0.00,,,-99.99,FreeWX-Wi 1.02,2013-02-07 23:44:00,
2013-02-07 15:49:00,73.9,25.0,29.94,ESE,122,5.0,8.7,16,0.00,,,-99.99,FreeWX-Wi 1.02,2013-02-07 23:49:00,
2013-02-07 15:54:00,73.8,24.8,29.94,ESE,119,5.0,6.3,16,0.00,,,-99.99,FreeWX-Wi 1.02,2013-02-07 23:54:00,
2013-02-07 15:59:00,73.6,24.6,29.94,SE,125,5.0,5.8,16,0.00,,,-99.99,FreeWX-Wi 1.02,2013-02-07 23:59:00,
2013-02-07 16:04:00,72.7,23.9,29.94,SE,132,5.0,10.1,16,0.00,,,-99.99,FreeWX-Wi 1.02,2013-02-08 00:04:00,
2013-02-07 16:09:00,72.3,23.5,29.94,SE,135,5.0,7.6,16,0.00,,,-99.99,FreeWX-Wi 1.02,2013-02-08 00:09:00,
2013-02-07 16:14:00,71.8,23.2,29.94,SE,140,4.0,8.7,16,0.00,,,-99.99,FreeWX-Wi 1.02,2013-02-08 00:14:00,
2013-02-07 16:19:00,71.2,24.3,29.94,SSE,148,4.0,8.1,17,0.00,,,-99.99,FreeWX-Wi 1.02,2013-02-08 00:19:00,
2013-02-07 16:24:00,70.7,23.7,29.94,SSE,153,4.0,6.3,17,0.00,,,-99.99,FreeWX-Wi 1.02,2013-02-08 00:24:00,
2013-02-07 16:29:00,70.3,23.5,29.94,SSE,154,5.0,8.3,17,0.00,,,-99.99,FreeWX-Wi 1.02,2013-02-08 00:29:00,
2013-02-07 16:34:00,69.6,22.8,29.94,SSE,151,4.0,8.1,17,0.00,,,-99.99,FreeWX-Wi 1.02,2013-02-08 00:34:00,
2013-02-07 16:39:00,69.1,22.5,29.94,SSE,154,4.0,5.8,17,0.00,,,-99.99,FreeWX-Wi 1.02,2013-02-08 00:39:00,
2013-02-07 16:44:00,68.5,21.9,29.94,SSE,151,4.0,5.8,17,0.00,,,-99.99,FreeWX-Wi 1.02,2013-02-08 00:44:00,
2013-02-07 16:49:00,68.2,21.7,29.94,SE,145,4.0,8.1,17,0.00,,,-99.99,FreeWX-Wi 1.02,2013-02-08 00:49:00,
2013-02-07 16:54:00,67.6,21.2,29.94,SE,141,4.0,8.1,17,0.00,,,-99.99,FreeWX-Wi 1.02,2013-02-08 00:54:00,
2013-02-07 16:59:00,67.5,21.2,29.94,SE,138,4.0,8.3,17,0.00,,,-99.99,FreeWX-Wi 1.02,2013-02-08 00:59:00,
2013-02-07 17:04:00,66.7,20.5,29.94,SE,136,4.0,7.6,17,0.00,,,-99.99,FreeWX-Wi 1.02,2013-02-08 01:04:00,
2013-02-07 17:09:00,66.0,21.4,29.94,SE,135,4.0,5.8,18,0.00,,,-99.99,FreeWX-Wi 1.02,2013-02-08 01:09:00,
2013-02-07 17:14:00,65.5,20.8,29.94,SE,132,3.0,6.3,18,0.00,,,-99.99,FreeWX-Wi 1.02,2013-02-08 01:14:00,
2013-02-07 17:19:00,64.8,20.3,29.94,SE,134,3.0,5.4,18,0.00,,,-99.99,FreeWX-Wi 1.02,2013-02-08 01:19:00,
2013-02-07 17:24:00,63.9,19.6,29.94,SE,144,2.0,2.7,18,0.00,,,-99.99,FreeWX-Wi 1.02,2013-02-08 01:24:00,
2013-02-07 17:29:00,62.8,18.7,29.94,SSE,156,2.0,4.0,18,0.00,,,-99.99,FreeWX-Wi 1.02,2013-02-08 01:29:00,
2013-02-07 17:34:00,62.2,19.4,29.94,South,169,1.0,3.1,19,0.00,,,-99.99,FreeWX-Wi 1.02,2013-02-08 01:34:00,
2013-02-07 17:39:00,62.2,19.4,29.94,South,182,1.0,3.6,19,0.00,,,-99.99,FreeWX-Wi 1.02,2013-02-08 01:39:00,
2013-02-07 17:44:00,61.3,18.7,29.94,North,-999,0.0,0.0,19,0.00,,,-99.99,FreeWX-Wi 1.02,2013-02-08 01:44:00,
2013-02-07 17:49:00,60.8,18.3,29.94,SSW,206,1.0,6.3,19,0.00,,,-99.99,FreeWX-Wi 1.02,2013-02-08 01:49:00,
2013-02-07 17:54:00,60.6,18.1,29.94,North,-999,0.0,3.6,19,0.00,,,-99.99,FreeWX-Wi 1.02,2013-02-08 01:54:00,
2013-02-07 17:59:00,60.3,17.8,29.94,North,-999,0.0,0.0,19,0.00,,,-99.99,FreeWX-Wi 1.02,2013-02-08 01:59:00,
2013-02-07 18:04:00,60.6,18.1,29.94,North,-999,0.0,4.0,19,0.00,,,-99.99,FreeWX-Wi 1.02,2013-02-08 02:04:00,
2013-02-07 18:09:00,61.0,18.5,29.94,North,-999,0.0,4.0,19,0.00,,,-99.99,FreeWX-Wi 1.02,2013-02-08 02:09:00,
2013-02-07 18:14:00,60.8,18.3,29.94,North,-999,0.0,0.0,19,0.00,,,-99.99,FreeWX-Wi 1.02,2013-02-08 02:14:00,
2013-02-07 18:19:00,60.6,18.1,29.94,North,-999,0.0,4.9,19,0.00,,,-99.99,FreeWX-Wi 1.02,2013-02-08 02:19:00,
2013-02-07 18:24:00,61.0,18.5,29.94,North,-999,0.0,6.3,19,0.00,,,-99.99,FreeWX-Wi 1.02,2013-02-08 02:24:00,
2013-02-07 18:29:00,60.6,18.1,29.94,West,265,1.0,5.8,19,0.00,,,-99.99,FreeWX-Wi 1.02,2013-02-08 02:29:00,
2013-02-07 18:34:00,60.3,17.8,29.94,West,272,1.0,8.1,19,0.00,,,-99.99,FreeWX-Wi 1.02,2013-02-08 02:34:00,
2013-02-07 18:39:00,60.1,17.8,29.94,West,274,2.0,10.1,19,0.00,,,-99.99,FreeWX-Wi 1.02,2013-02-08 02:39:00,
2013-02-07 18:44:00,59.9,21.0,29.94,West,278,3.0,12.8,22,0.00,,,-99.99,FreeWX-Wi 1.02,2013-02-08 02:44:00,
2013-02-07 18:49:00,59.5,22.6,29.94,WNW,283,4.0,12.3,24,0.00,,,-99.99,FreeWX-Wi 1.02,2013-02-08 02:49:00,
2013-02-07 18:54:00,59.4,22.6,29.94,WNW,284,5.0,11.9,24,0.00,,,-99.99,FreeWX-Wi 1.02,2013-02-08 02:54:00,
2013-02-07 18:59:00,59.2,23.4,29.94,West,279,6.0,11.4,25,0.00,,,-99.99,FreeWX-Wi 1.02,2013-02-08 02:59:00,
2013-02-07 19:04:00,58.8,23.0,29.94,West,280,6.0,8.3,25,0.00,,,-99.99,FreeWX-Wi 1.02,2013-02-08 03:04:00,
2013-02-07 19:09:00,58.5,23.7,29.94,WNW,292,5.0,6.3,26,0.00,,,-99.99,FreeWX-Wi 1.02,2013-02-08 03:09:00,
2013-02-07 19:14:00,58.3,23.5,29.94,NW,307,5.0,7.6,26,0.00,,,-99.99,FreeWX-Wi 1.02,2013-02-08 03:14:00,
2013-02-07 19:19:00,58.1,23.4,29.94,NW,321,4.0,6.3,26,0.00,,,-99.99,FreeWX-Wi 1.02,2013-02-08 03:19:00,
2013-02-07 19:24:00,57.9,24.1,29.94,NNW,337,4.0,5.8,27,0.00,,,-99.99,FreeWX-Wi 1.02,2013-02-08 03:24:00,
2013-02-07 19:29:00,57.9,24.1,29.94,NNW,344,3.0,4.9,27,0.00,,,-99.99,FreeWX-Wi 1.02,2013-02-08 03:29:00,
2013-02-07 19:34:00,57.9,24.1,29.94,North,353,3.0,7.6,27,0.00,,,-99.99,FreeWX-Wi 1.02,2013-02-08 03:34:00,
2013-02-07 19:39:00,57.9,23.2,29.94,North,356,3.0,8.3,26,0.00,,,-99.99,FreeWX-Wi 1.02,2013-02-08 03:39:00,
2013-02-07 19:44:00,57.9,24.1,29.94,North,357,3.0,10.5,27,0.00,,,-99.99,FreeWX-Wi 1.02,2013-02-08 03:44:00,
2013-02-07 19:49:00,57.6,23.9,29.94,North,355,3.0,7.6,27,0.00,,,-99.99,FreeWX-Wi 1.02,2013-02-08 03:49:00,
2013-02-07 19:54:00,57.2,23.5,29.94,NNW,348,4.0,10.1,27,0.00,,,-99.99,FreeWX-Wi 1.02,2013-02-08 03:54:00,
2013-02-07 19:59:00,56.8,24.1,29.94,NNW,348,4.0,10.1,28,0.00,,,-99.99,FreeWX-Wi 1.02,2013-02-08 03:59:00,
2013-02-07 20:04:00,56.8,24.1,29.94,NNW,346,4.0,7.6,28,0.00,,,-99.99,FreeWX-Wi 1.02,2013-02-08 04:04:00,
2013-02-07 20:09:00,56.8,24.1,29.94,NNW,344,4.0,8.7,28,0.00,,,-99.99,FreeWX-Wi 1.02,2013-02-08 04:09:00,
2013-02-07 20:14:00,56.8,24.1,29.94,NNW,344,4.0,10.1,28,0.00,,,-99.99,FreeWX-Wi 1.02,2013-02-08 04:14:00,
2013-02-07 20:19:00,56.7,23.9,29.94,NNW,344,4.0,11.0,28,0.00,,,-99.99,FreeWX-Wi 1.02,2013-02-08 04:19:00,
2013-02-07 20:24:00,56.5,23.7,29.94,NNW,346,5.0,10.5,28,0.00,,,-99.99,FreeWX-Wi 1.02,2013-02-08 04:24:00,
2013-02-07 20:29:00,56.5,23.7,29.91,NNW,345,5.0,8.7,28,0.00,,,-99.99,FreeWX-Wi 1.02,2013-02-08 04:29:00,
2013-02-07 20:34:00,56.1,22.6,29.91,NNW,346,5.0,8.1,27,0.00,,,-99.99,FreeWX-Wi 1.02,2013-02-08 04:34:00,
2013-02-07 20:39:00,55.9,22.5,29.91,NNW,348,4.0,5.8,27,0.00,,,-99.99,FreeWX-Wi 1.02,2013-02-08 04:39:00,
2013-02-07 20:44:00,56.7,23.0,29.91,North,351,5.0,10.1,27,0.00,,,-99.99,FreeWX-Wi 1.02,2013-02-08 04:44:00,
2013-02-07 20:49:00,56.3,21.9,29.91,North,351,5.0,8.7,26,0.00,,,-99.99,FreeWX-Wi 1.02,2013-02-08 04:49:00,
2013-02-07 20:54:00,56.1,21.7,29.91,North,351,4.0,8.1,26,0.00,,,-99.99,FreeWX-Wi 1.02,2013-02-08 04:54:00,
2013-02-07 20:59:00,55.9,21.6,29.91,North,355,4.0,5.8,26,0.00,,,-99.99,FreeWX-Wi 1.02,2013-02-08 04:59:00,
2013-02-07 21:04:00,55.6,21.2,29.91,North,358,4.0,5.8,26,0.00,,,-99.99,FreeWX-Wi 1.02,2013-02-08 05:04:00,
2013-02-07 21:09:00,55.8,21.4,29.91,North,359,4.0,6.3,26,0.00,,,-99.99,FreeWX-Wi 1.02,2013-02-08 05:09:00,
2013-02-07 21:14:00,55.8,21.4,29.91,North,357,4.0,10.1,26,0.00,,,-99.99,FreeWX-Wi 1.02,2013-02-08 05:14:00,
2013-02-07 21:19:00,55.4,21.0,29.91,North,354,4.0,8.1,26,0.00,,,-99.99,FreeWX-Wi 1.02,2013-02-08 05:19:00,
2013-02-07 21:24:00,55.0,20.8,29.91,North,350,4.0,11.0,26,0.00,,,-99.99,FreeWX-Wi 1.02,2013-02-08 05:24:00,
2013-02-07 21:29:00,54.7,20.5,29.91,NNW,346,3.0,6.3,26,0.00,,,-99.99,FreeWX-Wi 1.02,2013-02-08 05:29:00,
2013-02-07 21:34:00,54.9,20.7,29.91,NNW,342,4.0,10.5,26,0.00,,,-99.99,FreeWX-Wi 1.02,2013-02-08 05:34:00,
2013-02-07 21:39:00,54.9,20.7,29.91,NNW,338,4.0,8.7,26,0.00,,,-99.99,FreeWX-Wi 1.02,2013-02-08 05:39:00,
2013-02-07 21:44:00,54.9,19.8,29.91,NNW,337,4.0,6.3,25,0.00,,,-99.99,FreeWX-Wi 1.02,2013-02-08 05:44:00,
2013-02-07 21:49:00,55.0,19.9,29.91,NNW,342,4.0,7.6,25,0.00,,,-99.99,FreeWX-Wi 1.02,2013-02-08 05:49:00,
2013-02-07 21:54:00,54.7,19.6,29.91,NNW,342,4.0,5.8,25,0.00,,,-99.99,FreeWX-Wi 1.02,2013-02-08 05:54:00,
2013-02-07 21:59:00,54.5,19.4,29.91,NNW,346,3.0,5.8,25,0.00,,,-99.99,FreeWX-Wi 1.02,2013-02-08 05:59:00,
2013-02-07 22:04:00,54.7,17.6,29.91,NNW,347,3.0,4.0,23,0.00,,,-99.99,FreeWX-Wi 1.02,2013-02-08 06:04:00,
2013-02-07 22:09:00,54.5,17.4,29.91,NNW,348,3.0,5.4,23,0.00,,,-99.99,FreeWX-Wi 1.02,2013-02-08 06:09:00,
2013-02-07 22:14:00,54.0,17.1,29.91,NNW,348,2.0,5.4,23,0.00,,,-99.99,FreeWX-Wi 1.02,2013-02-08 06:14:00,
2013-02-07 22:19:00,54.1,19.0,29.91,NNW,344,2.0,7.6,25,0.00,,,-99.99,FreeWX-Wi 1.02,2013-02-08 06:19:00,
2013-02-07 22:24:00,54.1,19.0,29.91,NNW,342,2.0,8.3,25,0.00,,,-99.99,FreeWX-Wi 1.02,2013-02-08 06:24:00,
2013-02-07 22:29:00,54.3,19.2,29.91,NNW,339,2.0,8.3,25,0.00,,,-99.99,FreeWX-Wi 1.02,2013-02-08 06:29:00,
2013-02-07 22:34:00,54.0,19.0,29.91,NNW,334,3.0,10.1,25,0.00,,,-99.99,FreeWX-Wi 1.02,2013-02-08 06:34:00,
2013-02-07 22:39:00,53.8,19.8,29.91,NNW,327,4.0,10.1,26,0.00,,,-99.99,FreeWX-Wi 1.02,2013-02-08 06:39:00,
2013-02-07 22:44:00,54.0,19.9,29.91,NW,322,4.0,11.9,26,0.00,,,-99.99,FreeWX-Wi 1.02,2013-02-08 06:44:00,
2013-02-07 22:49:00,54.0,19.9,29.91,NW,319,4.0,11.0,26,0.00,,,-99.99,FreeWX-Wi 1.02,2013-02-08 06:49:00,
2013-02-07 22:54:00,54.0,19.0,29.91,NW,319,4.0,8.3,25,0.00,,,-99.99,FreeWX-Wi 1.02,2013-02-08 06:54:00,
2013-02-07 22:59:00,54.0,19.0,29.91,NW,318,5.0,8.7,25,0.00,,,-99.99,FreeWX-Wi 1.02,2013-02-08 06:59:00,
2013-02-07 23:04:00,54.1,19.0,29.91,NW,318,5.0,10.1,25,0.00,,,-99.99,FreeWX-Wi 1.02,2013-02-08 07:04:00,
2013-02-07 23:09:00,54.0,17.1,29.91,NNW,330,5.0,8.3,23,0.00,,,-99.99,FreeWX-Wi 1.02,2013-02-08 07:09:00,
2013-02-07 23:14:00,54.0,19.0,29.91,NNW,333,4.0,7.2,25,0.00,,,-99.99,FreeWX-Wi 1.02,2013-02-08 07:14:00,
2013-02-07 23:20:00,53.8,18.9,29.91,NNW,336,4.0,8.7,25,0.00,,,-99.99,FreeWX-Wi 1.02,2013-02-08 07:20:00,
2013-02-07 23:25:00,54.1,17.2,29.91,NNW,339,5.0,19.7,23,0.00,,,-99.99,FreeWX-Wi 1.02,2013-02-08 07:25:00,
2013-02-07 23:30:00,54.0,17.1,29.91,NNW,341,5.0,11.0,23,0.00,,,-99.99,FreeWX-Wi 1.02,2013-02-08 07:30:00,
2013-02-07 23:35:00,54.1,17.2,29.91,NNW,340,5.0,13.6,23,0.00,,,-99.99,FreeWX-Wi 1.02,2013-02-08 07:35:00,
2013-02-07 23:40:00,53.4,16.5,29.91,NNW,333,6.0,12.8,23,0.00,,,-99.99,FreeWX-Wi 1.02,2013-02-08 07:40:00,
2013-02-07 23:45:00,53.8,16.9,29.91,NNW,333,6.0,10.1,23,0.00,,,-99.99,FreeWX-Wi 1.02,2013-02-08 07:45:00,
2013-02-07 23:50:00,53.6,16.7,29.91,NNW,334,6.0,12.8,23,0.00,,,-99.99,FreeWX-Wi 1.02,2013-02-08 07:50:00,
2013-02-07 23:55:00,53.8,16.9,29.91,NNW,338,7.0,15.9,23,0.00,,,-99.99,FreeWX-Wi 1.02,2013-02-08 07:55:00,